SCP
0 0 0 0 0 0 0 0 0 0 0 0 0 0 0 0 0 0 0 0 0 0 0 0 0 0 0 0 0 0 0 0 0 0 0 0 0 0 0 0 0 0 0
0 0 0 0 0 0 0 0 0 0 0 0 0 0 0 0 0 0 0 0 0 0 0 0 0 0 0 0 0 0 0 0 0 0 0 0 0 0 0 0 0 0 0
0 0 0 0 0 0 0 0 0 0 0 0 0 0 0 0 0 0 0 0 0 0 0 0 0 0 0 0 0 0 0 0 0 0 0 0 0 0 0 0 0 0 0
0 0 0 0 0 0 0 0 0 0 0 0 0 0 0 0 0 0 0 0 0 0 0 0 0 0 0 0 0 0 0 0 0 0 0 0 0 0 0 0 0 0 0
0 0 0 0 0 0 0 0 0 0 0 0 0 0 0 0 0 0 0 0 0 0 0 0 0 0 0 0 0 0 0 0 0 0 0 0 0 0 0 0 0 0 0
0 0 0 0 0 0 0 0 0 0 0 0 0 0 0 0 0 0 0 0 0 0 0 0 0 0 0 0 0 0 0 0 0 0 0 0 0 0 0 0 0 0 0
0 0 0 0 0 0 0 0 0 0 0 0 0 0 0 0 0 0 0 0 0 0 0 0 0 0 0 0 0 0 0 0 0 0 0 0 0 0 0 0 0 0 0
0 0 0 0 0 0 0 0 0 0 0 0 0 0 0 0 0 0 0 0 0 0 0 0 0 0 0 0 0 0 0 0 0 0 0 0 0 0 0 0 0 0 0
0 0 0 0 0 0 0 0 0 0 0 0 0 0 0 0 0 0 0 0 0 0 0 0 0 0 0 0 0 0 0 0 0 0 0 0 0 0 0 0 0 0 0
0 0 0 0 0 0 0 0 0 0 0 0 0 0 0 0 0 0 0 0 0 0 0 0 0 0 0 0 0 0 0 0 0 0 0 0 0 0 0 0 0 0 0
0 0 0 0 0 0 0 0 0 0 0 0 0 0 0 0 0 0 0 0 0 0 0 0 0 0 0 0 0 0 0 0 0 0 0 0 0 0 0 0 0 0 0
0 0 0 0 0 0 0 0 0 0 0 0 0 0 0 0 0 0 0 0 0 0 0 0 0 0 0 0 0 0 0 0 0 0 0 0 0 0 0 0 0 0 0
0 0 0 0 0 0 0 0 0 0 0 0 0 0 0 0 0 0 0 0 0 0 0 0 0 0 0 0 0 0 0 0 0 0 0 0 0 0 0 0 0 0 0
0 0 0 0 0 0 0 0 0 0 0 0 0 0 0 0 0 0 0 0 0 0 0 0 0 0 0 0 0 0 0 0 0 0 0 0 0 0 0 0 0 0 0
0 0 0 0 0 0 0 0 0 0 0 0 0 0 0 0 0 0 0 0 0 0 0 0 0 0 0 0 0 0 0 0 0 0 0 0 0 0 0 0 0 0 0
0 0 0 0 0 0 0 0 0 0 0 0 0 0 0 0 0 0 0 0 0 0 0 0 0 0 0 0 0 0 0 0 0 0 0 0 0 0 0 0 0 0 0
0 0 0 0 0 0 0 0 0 0 0 0 0 0 0 0 0 0 0 0 0 0 0 0 0 0 0 0 0 0 0 0 0 0 0 0 0 0 0 0 0 0 0
0 0 0 0 0 0 0 0 0 0 0 0 0 0 0 0 0 0 0 0 0 0 0 0 0 0 0 0 0 0 0 0 0 0 0 0 0 0 0 0 0 0 0
0 0 0 0 0 0 0 0 0 0 0 0 0 0 0 0 0 0 0 0 0 0 0 0 0 0 0 0 0 0 0 0 0 0 0 0 0 0 0 0 0 0 0
0 0 0 0 0 0 0 0 0 0 0 0 0 0 0 0 0 0 0 0 0 0 0 0 0 0 0 0 0 0 0 0 0 0 0 0 0 0 0 0 0 0 0
0 0 0 0 0 0 0 0 0 0 0 0 0 0 0 0 0 0 0 0 0 0 0 0 0 0 0 0 0 0 0 0 0 0 0 0 0 0 0 0 0 0 0
0 0 0 0 0 0 0 0 0 0 0 0 0 0 0 0 0 0 0 0 0 0 0 0 0 0 0 0 0 0 0 0 0 0 0 0 0 0 0 0 0 0 0
0 0 0 0 0 0 0 0 0 0 0 0 0 0 0 0 0 0 0 0 0 0 0 0 0 0 0 0 0 0 0 0 0 0 0 0 0 0 0 0 0 0 0
0 0 0 0 0 0 0 0 0 0 0 0 0 0 0 0 0 0 0 0 0 0 0 0 0 0 0 0 0 0 0 0 0 0 0 0 0 0 0 0 0 0 0
0 0 0 0 0 0 0 0 0 0 0 0 0 0 0 0 0 0 0 0 0 0 0 0 0 0 0 0 0 0 0 0 0 0 0 0 0 0 0 0 0 0 0
0 0 0 0 0 0 0 0 0 0 0 0 0 0 0 0 0 0 0 0 0 0 0 0 0 0 0 0 0 0 0 0 0 0 0 0 0 0 0 0 0 0 0
Wind_Speed
2 2 1 1 1 1 1 2 2 2 2 3 3 4 4 4 3 2 2 6 6 6 6 7 6 6 6 6 6 6 6 6 6 6 6 6 7 7 7 7 7 6 6
2 2 1 1 0 1 1 1 2 2 2 2 2 3 3 3 3 3 2 3 5 5 6 6 6 6 6 6 6 6 6 5 5 6 6 6 6 7 6 6 7 7 6
3 2 2 1 1 1 1 2 2 2 2 2 2 2 2 3 3 3 3 2 2 4 5 6 6 6 6 6 6 6 6 6 6 5 5 5 5 6 6 6 7 7 6
4 3 2 2 1 1 1 2 2 2 1 2 1 1 1 2 3 3 2 2 2 2 3 6 6 5 6 6 6 6 6 6 6 6 6 6 6 6 6 6 6 6 6
5 3 2 2 2 2 2 2 1 2 2 1 1 1 1 1 2 3 3 3 3 2 2 3 5 6 6 6 6 6 7 7 7 7 7 7 7 6 6 6 6 6 6
5 4 3 3 3 2 2 1 2 1 1 2 1 1 0 1 2 2 3 3 3 4 4 3 3 4 6 6 6 7 7 8 7 8 8 8 7 7 6 7 7 6 6
5 4 3 3 3 3 3 3 2 2 1 1 2 1 1 1 2 3 3 3 4 5 4 4 3 3 3 6 6 7 7 8 8 8 8 8 8 8 8 8 7 7 7
5 5 5 4 4 3 3 3 3 2 1 2 2 2 1 2 2 2 3 4 5 4 5 6 5 5 4 3 4 7 8 9 9 9 9 9 9 8 9 9 8 8 8
5 5 5 5 4 4 4 4 4 4 3 1 1 3 2 3 2 2 3 4 4 4 5 5 6 6 6 5 4 7 9 8 9 10 10 10 10 9 9 10 9 9 9
5 6 5 5 5 4 4 4 4 3 4 3 1 1 2 3 2 2 2 2 4 5 5 5 6 6 7 5 6 8 9 9 10 11 11 10 10 10 11 11 11 11 10
5 5 5 5 5 4 5 5 4 4 3 4 3 2 2 1 2 2 2 2 2 3 4 5 5 5 6 6 6 8 10 10 10 11 11 11 11 11 12 12 12 13 12
3 5 5 5 5 4 5 5 5 5 4 4 3 3 3 3 3 3 3 3 3 3 3 4 5 5 5 6 9 10 11 11 11 11 11 11 11 11 11 12 13 13 13
4 5 5 5 4 5 5 5 5 5 5 5 5 4 4 3 3 3 3 2 2 2 2 3 4 4 5 5 6 10 11 11 11 11 11 11 11 11 11 11 12 13 13
5 5 6 6 6 6 6 5 4 5 5 5 6 5 4 4 4 4 4 3 2 2 2 4 2 4 5 5 7 9 7 10 11 11 11 11 11 11 11 11 11 11 11
5 5 6 6 6 6 6 5 4 5 5 5 5 6 4 4 4 4 4 4 4 3 4 3 3 3 3 4 6 5 6 7 9 10 10 10 11 11 11 11 11 11 11
5 5 6 6 5 5 5 5 4 5 5 5 4 5 5 4 4 4 4 4 4 4 4 3 3 3 2 3 4 5 5 6 7 8 9 9 10 10 11 11 11 11 11
6 6 6 6 6 5 5 5 5 5 6 6 5 6 6 5 4 4 4 4 5 4 5 4 2 2 2 3 2 3 4 4 4 6 7 8 8 9 9 10 10 10 11
6 6 6 6 6 6 6 6 7 7 7 7 7 6 7 5 6 5 5 5 5 5 5 5 3 2 3 3 2 3 3 3 3 4 6 6 7 7 8 8 9 9 10
5 5 5 6 6 6 6 6 7 7 7 7 7 7 7 6 7 5 6 6 5 5 5 5 4 3 2 2 2 2 2 2 3 3 4 5 6 6 6 7 7 8 8
6 6 5 6 6 5 6 6 6 6 6 7 7 7 7 8 8 7 6 6 5 5 5 4 4 3 3 2 2 2 2 2 2 2 2 2 3 4 4 5 5 6 7
6 5 5 5 5 5 5 6 6 6 6 6 6 7 7 8 8 7 6 5 5 5 4 4 4 3 3 2 3 2 3 2 2 2 1 1 1 2 2 3 5 5 6
4 4 4 4 4 4 5 7 6 5 5 6 6 6 6 7 8 9 9 8 7 6 6 5 4 5 5 4 3 3 3 2 3 1 2 2 1 2 2 2 3 4 5
4 4 4 4 4 4 5 6 6 4 4 4 5 4 4 4 5 5 6 6 6 7 8 6 6 6 5 5 4 4 4 4 4 2 2 3 2 3 2 2 3 3 4
3 3 3 3 2 2 3 4 4 3 3 3 3 3 4 3 3 3 3 3 3 3 4 4 4 4 4 4 4 4 3 3 2 1 2 3 2 3 3 2 3 3 3
2 2 1 1 1 1 1 2 2 2 1 2 2 2 3 3 3 2 2 2 2 2 1 1 1 0 1 1 1 2 2 2 2 2 1 2 2 2 2 3 2 1 2
2 2 2 1 1 1 2 0 1 1 1 1 0 1 1 1 1 2 2 2 2 1 0 1 2 2 2 2 2 1 2 2 2 2 1 2 2 1 2 2 1 1 1
Wind_Direction
134 123 109 86 77 71 80 88 86 92 98 111 129 138 144 144 145 141 153 166 164 161 158 156 157 157 154 154 153 153 155 156 153 150 149 153 153 152 154 152 153 154 153
154 149 146 127 86 93 101 103 103 105 102 117 130 139 148 152 154 154 159 180 180 175 172 171 173 172 172 173 172 168 170 165 164 163 163 162 164 165 167 165 166 168 164
169 164 165 171 174 118 112 101 98 97 112 123 127 141 151 161 166 169 170 180 195 197 193 191 190 190 191 191 188 185 181 180 178 175 175 177 175 175 177 177 177 174 173
177 172 174 186 171 135 126 125 116 106 103 121 137 158 158 173 187 186 182 187 197 212 217 213 209 206 207 208 207 201 194 193 190 188 186 188 184 182 182 184 184 182 183
181 176 184 187 163 148 153 165 123 131 139 143 153 140 170 203 208 205 205 208 210 219 229 238 232 222 220 221 221 215 204 203 199 198 199 200 197 194 192 194 195 193 194
180 173 182 182 163 152 159 153 137 113 130 145 138 105 240 233 226 226 226 222 223 227 227 234 239 237 234 234 229 225 217 211 209 210 212 209 207 203 202 205 206 205 203
180 179 186 177 172 175 181 163 142 128 114 116 97 48 355 291 242 236 230 229 232 230 225 227 228 230 241 242 235 230 228 223 220 218 220 218 216 212 209 212 213 210 211
185 191 188 182 176 172 172 171 153 139 141 149 139 118 351 330 290 242 224 226 233 227 229 228 225 226 234 236 238 235 234 233 230 225 224 221 219 216 216 218 219 216 215
195 193 191 183 177 177 188 190 177 164 168 180 162 148 161 231 287 297 247 233 228 225 230 230 227 227 227 229 236 239 237 234 235 235 231 226 221 218 219 223 225 223 222
196 195 191 185 183 184 190 197 190 179 164 177 183 180 173 167 176 294 303 259 239 233 232 232 230 227 225 226 230 233 235 232 235 240 240 234 227 222 222 226 231 231 228
204 198 190 186 190 194 197 197 187 187 182 180 180 171 168 168 170 185 269 293 278 247 236 232 232 230 227 226 229 234 231 232 233 237 241 239 233 229 229 231 235 236 233
209 203 194 194 195 197 202 203 198 193 196 192 190 182 176 177 190 190 223 251 264 271 251 237 232 232 228 226 233 232 228 230 231 233 237 239 237 236 235 235 237 239 238
210 211 201 198 199 204 209 202 198 202 199 198 199 204 204 205 179 177 193 227 252 278 283 255 237 233 230 224 233 233 232 230 230 233 234 236 236 236 237 237 239 241 243
211 205 203 205 202 203 208 199 205 208 204 207 211 206 209 215 201 193 190 188 230 273 270 264 260 233 234 229 233 229 236 230 231 234 236 237 238 238 238 238 239 241 242
206 202 206 209 208 205 203 196 209 214 207 213 216 213 215 218 212 213 205 196 196 235 258 253 253 251 238 233 234 228 232 235 234 236 237 239 240 240 240 238 237 238 239
204 198 206 208 209 208 203 202 212 215 211 219 216 216 222 222 217 211 209 209 206 211 241 244 238 255 252 243 224 225 233 237 237 239 241 241 241 240 240 238 237 236 238
200 203 203 203 207 211 207 207 216 216 220 226 224 222 230 219 220 218 210 209 211 206 232 252 233 246 242 245 247 230 231 231 239 239 241 241 241 242 241 239 238 238 238
203 204 199 202 211 214 211 212 221 222 223 228 228 228 235 227 225 223 215 218 217 210 218 243 240 232 235 233 235 240 242 233 232 233 233 236 239 240 240 240 240 240 241
204 203 199 206 215 217 216 220 224 226 226 229 228 227 232 226 231 228 222 225 224 218 216 228 241 227 237 232 230 238 238 250 243 237 233 236 238 237 239 243 245 244 243
201 203 204 208 216 220 222 225 227 231 234 237 235 233 233 227 230 229 228 228 225 221 218 225 239 240 237 231 215 239 255 241 254 264 256 240 239 237 244 248 248 244 241
202 202 203 212 218 221 228 227 229 233 235 240 242 240 238 234 229 224 226 224 220 221 222 225 236 239 237 221 223 223 242 253 251 239 247 250 245 250 252 253 250 248 241
197 198 204 212 220 232 236 228 228 235 238 240 247 250 248 240 236 229 227 223 217 221 226 227 231 233 238 229 220 217 223 235 255 225 221 256 231 250 255 252 257 247 244
189 199 204 208 226 242 237 233 232 232 238 242 245 250 258 256 240 236 232 228 227 230 224 223 228 231 233 225 211 214 216 220 239 244 203 254 248 252 257 261 249 246 248
184 196 202 207 225 255 245 236 226 222 237 251 254 254 259 265 256 228 221 231 237 244 234 222 227 238 243 234 213 216 217 219 240 249 208 244 257 255 268 267 268 254 260
174 189 173 171 209 280 282 259 222 200 209 254 270 278 267 265 273 202 196 218 244 271 280 171 174 237 329 322 199 182 199 211 252 258 208 229 263 272 271 265 268 284 292
143 123 108 114 124 332 358 18 159 175 191 223 311 343 342 280 295 187 194 193 213 256 170 79 75 30 14 19 49 198 216 218 237 256 217 211 246 265 275 260 277 306 315